SCP
-0 -0 -0 -0 -0 -0 -0 -0 -0 -0 -0 -0 -0 -0 -0 -0 -0 -0 0 0 -0 -0 -0 -0 -0 -0 0 0 -0 0 -0 -0 0 0 0 0 -0 0 0 0 0 0 0 0 0 0 0
-0 -0 -0 -0 -0 -0 -0 -0 -0 -0 -0 -0 -0 -0 -0 -0 -0 -0 -0 -0 -0 -0 -0 -0 -0 -0 -0 -0 0 -0 0 -0 -0 0 0 0 0 0 0 0 0 0 0 0 0 0 0
-0 -0 -0 -0 -0 -0 -0 -0 -0 -0 -0 -0 -0 -0 -0 -0 -0 -0 -0 -0 -0 -0 -0 -0 -0 0 0 0 -0 0 -0 -0 -0 0 0 0 0 0 0 0 0 0 0 0 0 0 0
-0 -0 -0 -0 -0 -0 -0 -0 -0 -0 -0 -0 -0 -0 -0 -0 -0 -0 -0 -0 -0 -0 -0 -0 -0 -0 0 -0 -0 -0 -0 -0 -0 -0 0 0 0 0 0 0 0 0 0 0 0 0 0
-0 -0 -0 -0 -0 -0 -0 -0 -0 -0 -0 -0 -0 -0 -0 -0 -0 -0 -0 -0 -0 -0 -0 -0 0 0 0 -0 -0 -0 -0 0 0 0 0 0 0 0 0 0 0 0 0 0 0 0 0
0 -0 -0 -0 -0 -0 -0 -0 -0 -0 -0 -0 -0 -0 -0 -0 -0 -0 -0 -0 0 0 0 -0 0 0 -0 0 -0 -0 -0 0 0 0 0 0 0 0 0 0 0 0 0 0 0 0 0
0 0 -0 -0 -0 -0 -0 -0 -0 -0 -0 -0 -0 -0 -0 -0 -0 0 -0 0 0 0 0 0 0 0 -0 -0 -0 -0 0 0 0 0 0 0 0 0 0 0 0 0 0 0 0 0 0
0 0 -0 -0 -0 -0 -0 -0 -0 -0 -0 -0 -0 -0 -0 -0 -0 -0 -0 0 0 0 0 0 0 0 -0 -0 0 0 0 0 0 0 0 0 0 0 0 0 0 0 0 0 0 0 0
0 0 -0 -0 -0 -0 -0 -0 -0 -0 -0 -0 -0 -0 -0 -0 -0 0 0 0 -0 0 0 0 0 0 0 0 0 0 0 0 0 0 0 0 0 0 0 0 0 0 0 0 0 0 0
0 0 -0 -0 -0 -0 -0 -0 -0 -0 -0 -0 -0 -0 -0 -0 0 0 0 0 -0 -0 0 0 0 0 0 0 0 0 0 0 0 0 0 0 0 0 0 0 0 0 0 0 0 0 0
0 0 0 -0 -0 -0 -0 -0 -0 -0 -0 -0 -0 -0 0 0 0 0 0 -0 0 0 0 0 0 0 0 0 0 0 0 0 0 0 0 0 0 0 0 0 0 0 0 0 0 0 0
0 0 -0 -0 -0 -0 -0 -0 -0 -0 -0 -0 -0 -0 0 0 0 0 0 0 0 0 0 0 0 0 0 0 0 0 0 0 0 0 0 0 0 0 0 0 0 0 0 0 0 0 0
0 0 0 -0 -0 -0 -0 -0 -0 -0 -0 -0 -0 0 0 0 0 0 0 0 0 0 0 0 0 0 0 0 0 0 0 0 0 0 0 0 0 0 0 0 0 0 0 0 0 0 0
0 0 0 -0 -0 -0 -0 -0 -0 -0 -0 -0 0 0 0 0 0 0 0 0 0 0 0 0 0 0 0 0 0 0 0 0 0 0 0 0 0 0 0 0 0 0 0 0 0 0 0
-0 -0 0 -0 -0 -0 -0 -0 -0 -0 -0 -0 -0 0 0 0 -0 0 0 0 0 0 0 0 0 0 0 0 0 0 0 0 0 0 0 0 0 0 0 0 0 0 0 0 0 0 0
0 0 0 -0 -0 -0 -0 -0 -0 -0 -0 -0 0 0 0 0 0 0 0 0 0 0 0 0 0 0 0 0 0 0 0 0 0 0 0 0 0 0 0 0 0 0 0 0 0 0 0
0 0 0 0 -0 -0 -0 -0 -0 -0 -0 -0 0 0 0 0 0 0 0 0 0 0 0 0 0 0 0 0 0 0 0 0 0 0 0 0 0 0 0 0 0 0 0 0 0 0 0
0 0 0 0 0 -0 -0 -0 -0 -0 -0 0 0 0 0 0 0 0 0 0 0 0 0 0 0 0 0 0 0 0 0 0 0 0 0 0 0 0 0 0 0 0 0 0 0 0 0
0 0 0 0 0 0 -0 -0 -0 -0 0 -0 0 0 0 0 0 0 0 0 0 0 0 0 0 0 0 0 0 0 0 0 0 0 0 0 0 0 0 0 0 0 0 0 0 0 0
0 0 0 0 0 0 -0 -0 -0 -0 0 0 0 0 0 0 0 0 0 0 0 0 0 0 0 0 0 0 0 0 0 0 0 0 0 0 0 0 0 0 0 0 0 0 0 0 0
0 0 0 0 0 0 0 0 -0 -0 0 0 0 0 0 0 0 0 0 0 0 0 0 0 0 0 0 0 0 0 0 0 0 0 0 0 0 0 0 0 0 0 0 0 0 0 0
0 0 0 0 0 0 0 0 0 0 0 0 0 0 0 0 0 0 0 0 0 0 0 0 0 0 0 0 0 0 0 0 0 0 0 0 0 0 0 0 0 0 0 0 0 0 0
0 0 0 0 0 0 0 0 0 0 0 0 0 0 0 0 0 0 0 0 0 0 0 0 0 0 0 0 0 0 0 0 0 0 0 0 0 0 0 0 0 0 0 0 0 0 0
0 0 0 0 0 0 0 0 0 0 0 0 0 0 0 0 0 0 0 0 0 0 0 0 0 0 0 0 0 0 0 0 0 0 0 0 0 0 0 0 0 0 0 0 0 0 0
0 0 0 0 0 0 0 0 0 0 0 0 0 0 0 0 0 0 0 0 0 0 0 0 0 0 0 0 0 0 0 0 0 0 0 0 0 0 0 0 0 0 0 0 0 0 0
0 0 0 0 0 0 0 0 0 0 0 0 0 0 0 0 0 0 0 0 0 0 0 0 0 0 0 0 0 0 0 0 0 0 0 0 0 0 0 0 0 0 0 0 0 0 0
0 0 0 0 0 0 0 0 0 0 0 0 0 0 0 0 0 0 0 0 0 0 0 0 0 0 0 0 0 0 0 0 0 0 0 0 0 0 0 0 0 0 0 0 0 0 -0
0 0 0 0 0 0 0 0 0 0 0 0 0 0 0 0 0 0 0 0 0 0 0 0 0 0 0 0 0 0 0 0 0 0 0 0 0 0 0 0 0 0 0 0 0 0 0
0 0 0 0 0 0 0 0 0 0 0 0 0 0 0 0 0 0 0 0 0 0 0 0 0 0 0 0 0 0 0 0 0 0 0 0 0 0 0 0 0 0 0 0 0 0 0
Wind_Speed_500mb
63 63 61 58 55 51 46 40 33 29 25 23 23 24 23 22 22 24 28 28 25 22 20 22 23 17 18 22 15 12 16 21 25 30 39 35 37 16 13 7 6 15 14 12 15 7 8
62 62 62 60 57 53 49 44 38 29 24 21 21 22 21 22 23 25 25 24 21 16 14 17 21 20 26 27 16 14 14 17 22 27 28 29 18 16 13 7 8 6 10 14 6 6 4
61 61 60 58 57 55 51 46 41 35 25 18 17 18 18 20 22 19 18 16 13 9 8 8 11 12 16 14 12 12 18 19 22 29 30 26 13 11 5 6 6 3 2 5 8 12 5
61 61 59 58 57 55 52 49 44 38 31 19 12 12 13 16 18 16 13 9 7 2 3 6 8 7 8 11 12 14 14 13 15 20 25 25 12 18 8 4 6 6 3 12 15 14 2
61 63 62 59 56 55 53 50 47 41 35 26 11 6 9 12 13 10 7 5 3 6 5 6 5 6 7 4 3 2 2 5 8 10 15 19 9 10 6 4 3 10 12 19 15 15 9
62 64 65 63 58 55 54 54 50 44 38 30 17 2 6 8 8 7 5 6 9 4 5 5 4 8 3 2 3 6 7 11 10 9 4 12 8 4 4 7 10 11 10 9 19 10 9
63 64 65 64 61 57 56 55 53 49 41 33 23 6 6 10 5 2 8 2 4 1 7 4 6 5 10 2 9 5 12 14 14 5 2 6 4 4 1 6 6 10 9 16 17 12 20
63 64 64 64 63 61 60 57 55 51 44 35 24 12 4 11 6 3 7 11 13 7 8 6 2 7 7 7 3 17 7 5 4 7 6 4 12 7 8 8 10 11 11 19 15 14 23
62 63 63 64 65 65 64 62 58 55 49 37 23 12 5 15 8 9 10 15 12 13 1 6 9 11 8 9 10 16 13 4 5 7 8 12 11 4 7 7 10 8 12 7 16 26 25
61 62 63 64 65 66 65 64 61 59 54 41 25 9 5 17 10 9 5 10 15 6 3 3 3 8 10 5 6 28 20 2 2 8 7 10 5 4 5 5 5 13 7 12 22 26 24
61 62 62 63 65 67 68 64 63 62 59 41 23 7 6 20 10 11 5 18 4 2 6 4 6 7 15 8 8 18 17 9 8 6 4 5 8 9 7 3 7 8 10 19 23 25 11
60 62 62 63 65 67 68 66 62 62 57 36 23 13 10 14 7 2 14 11 4 2 5 4 7 9 6 15 8 19 18 14 4 3 3 4 8 2 3 4 2 6 11 22 2 4 9
57 61 63 63 64 68 69 68 62 61 51 33 24 23 25 19 10 13 10 7 3 2 4 5 5 6 6 7 4 13 11 11 8 10 10 16 4 0 1 7 5 5 16 9 6 5 10
54 58 62 62 64 66 68 68 65 59 44 26 30 30 24 18 15 14 6 3 4 1 4 1 4 2 3 14 6 14 9 5 6 6 3 6 8 6 1 22 17 6 4 5 12 10 27
51 56 60 61 63 65 66 67 66 57 47 16 15 20 22 20 18 13 3 7 3 3 6 6 2 3 2 2 7 11 5 4 3 3 5 8 10 10 28 10 6 8 10 3 9 8 11
48 54 56 59 62 64 66 66 65 57 45 9 6 6 27 20 17 9 8 6 4 6 6 1 2 0 3 2 5 12 7 5 3 3 1 3 19 13 6 5 6 13 13 6 4 9 13
45 50 52 56 59 62 65 67 63 58 46 22 1 2 27 16 12 11 6 4 3 7 11 2 3 4 4 2 4 7 6 3 3 6 5 6 6 7 6 13 25 10 9 7 8 9 11
43 47 51 54 56 59 61 62 63 57 49 32 6 4 30 14 10 7 5 7 12 9 17 9 3 2 2 0 5 6 7 7 6 7 13 0 6 19 36 43 20 20 28 27 13 16 14
39 44 49 51 52 56 57 60 59 56 52 34 7 8 23 9 6 6 7 4 9 15 11 10 8 10 7 1 6 8 8 9 7 4 9 4 5 12 15 6 6 7 8 24 21 12 35
36 41 46 48 48 51 54 55 56 54 47 25 9 4 17 26 17 5 7 7 8 13 5 9 3 8 6 4 4 10 18 10 6 18 29 13 14 22 22 37 36 43 42 41 29 13 34
33 37 40 42 43 46 51 51 52 49 43 17 15 8 8 7 10 8 3 5 7 10 7 9 4 13 9 7 18 15 8 16 29 23 1 5 16 23 33 43 44 45 48 48 39 47 32
30 34 34 37 39 43 45 47 47 48 41 43 10 7 8 2 6 3 5 4 6 8 5 3 3 13 14 13 20 34 22 10 14 7 3 7 18 28 40 32 28 29 38 41 41 40 32
28 31 33 36 35 39 42 41 42 46 46 24 24 16 5 1 2 3 2 4 5 9 5 9 7 22 22 17 15 37 43 49 41 33 32 15 9 8 25 19 34 28 11 16 27 22 17
27 27 32 34 31 36 36 37 39 42 43 36 29 16 7 2 3 4 2 4 7 8 15 22 25 9 6 35 52 40 30 25 22 24 32 7 5 4 16 26 23 13 32 21 17 22 29
27 26 30 31 26 30 29 30 33 37 38 34 28 18 7 5 3 4 2 6 17 15 9 14 13 9 34 18 8 11 3 5 5 8 14 10 3 9 9 20 37 21 3 4 6 37 32
29 28 31 25 26 29 28 28 27 30 34 34 27 23 9 5 5 3 2 4 5 7 8 6 13 19 11 4 3 5 5 6 5 4 9 5 11 10 11 9 16 15 2 26 40 31 10
32 30 29 24 22 29 30 27 24 26 31 33 25 23 13 7 8 5 6 5 5 4 6 7 11 8 10 3 3 3 4 5 5 9 8 21 14 14 14 13 20 14 6 53 15 12 62
35 32 29 26 27 27 28 26 22 22 28 30 26 22 19 11 25 14 12 13 11 7 5 6 10 2 4 2 3 2 5 4 9 13 21 12 9 7 8 10 12 5 39 4 24 66 65
35 33 25 24 28 23 28 26 24 24 24 29 26 27 27 19 22 41 37 32 36 29 19 6 4 4 4 1 3 2 8 9 12 10 2 8 12 9 10 15 51 63 43 63 56 63 62
Wind_Direction_500mb
42 40 39 39 38 38 38 37 37 39 41 42 38 32 37 53 75 90 107 113 110 100 79 66 61 88 103 95 103 86 62 67 69 55 49 52 57 77 71 76 96 45 1 333 316 313 242
40 38 37 36 36 35 34 34 34 32 31 33 36 38 48 67 82 97 110 117 114 98 77 67 59 91 100 87 107 104 74 69 62 46 41 45 50 83 87 73 58 338 330 333 5 3 309
38 36 34 33 33 31 31 31 29 29 26 25 35 43 57 76 84 96 109 119 119 97 71 49 54 61 94 86 101 91 87 78 52 41 41 38 43 60 91 113 1 358 20 19 16 6 19
36 33 32 31 29 28 27 28 26 25 25 26 30 47 70 88 86 90 102 125 151 135 36 29 22 71 114 100 91 99 93 75 53 40 37 35 73 89 70 103 39 37 71 348 356 343 47
32 30 29 28 29 27 26 24 22 22 22 21 30 59 98 101 89 77 100 82 248 238 287 323 356 73 116 82 98 94 27 21 13 18 25 24 62 70 46 50 77 35 331 331 324 350 340
28 27 27 27 27 26 24 22 20 17 17 18 19 66 145 140 109 72 22 302 351 226 281 309 62 124 133 43 348 295 314 311 308 319 346 25 56 97 104 25 6 319 306 295 304 336 334
26 24 25 25 25 25 23 19 18 15 12 12 13 15 180 183 170 13 352 357 348 67 322 283 285 278 269 320 301 323 286 282 281 266 256 30 316 359 289 203 211 226 237 271 295 303 320
25 23 23 23 22 21 20 17 14 11 7 4 4 5 183 176 161 49 59 87 52 349 318 10 304 250 266 287 2 19 346 232 207 270 148 236 286 212 185 210 231 231 275 301 288 297 313
23 21 20 20 19 18 17 14 10 6 2 358 356 348 180 162 152 126 74 62 23 352 331 11 77 60 43 81 39 18 22 308 239 246 221 250 287 147 239 238 246 250 269 260 297 317 287
20 19 16 16 14 13 15 12 8 3 358 355 352 335 184 173 165 165 65 12 341 348 68 17 57 40 359 136 105 37 17 349 196 281 199 258 342 286 293 255 212 282 198 286 288 312 307
16 16 14 12 10 9 10 12 8 4 357 0 4 2 160 175 146 152 358 343 6 150 146 63 61 59 49 81 321 18 24 357 292 310 233 301 341 330 296 103 199 306 311 294 293 287 278
11 12 11 10 8 7 9 11 10 7 3 12 28 56 110 162 143 98 328 334 117 179 129 70 43 17 39 13 29 349 12 5 33 53 46 295 297 266 101 71 100 328 301 291 170 238 246
9 7 7 8 7 5 6 11 11 11 11 24 51 86 97 97 75 356 344 151 130 73 312 39 17 1 105 9 6 8 2 30 30 355 3 322 21 23 98 340 298 317 329 316 282 245 292
4 4 2 3 3 4 3 6 12 12 19 46 80 92 84 58 21 8 83 108 101 108 44 76 25 105 71 3 33 348 11 35 78 77 306 332 304 343 170 329 295 290 259 264 291 292 297
1 359 360 1 3 2 1 0 6 11 19 58 92 77 52 31 11 7 99 65 92 47 330 353 345 72 106 31 353 348 7 266 185 121 8 299 249 293 296 303 219 155 220 349 271 267 268
357 357 359 359 1 3 2 1 1 8 11 29 112 55 21 11 7 36 76 110 97 41 333 84 263 316 294 323 318 350 315 190 190 182 43 307 297 271 284 255 204 246 152 212 213 270 261
354 355 358 359 359 1 2 1 1 3 9 11 229 88 4 359 10 54 79 72 25 8 19 317 215 239 213 257 238 303 270 272 201 147 213 287 222 274 279 244 277 230 219 210 275 232 264
352 354 355 357 356 358 2 3 1 1 6 14 40 59 1 1 37 31 58 345 349 351 20 20 84 84 310 242 266 265 253 259 165 331 315 20 242 275 273 276 292 259 262 251 236 238 233
350 351 351 353 354 357 1 5 5 4 5 10 46 24 21 41 65 31 349 13 38 12 24 15 45 42 17 301 303 245 252 278 244 246 332 184 254 303 286 189 141 227 223 239 251 274 259
345 348 349 352 354 357 1 4 6 7 7 14 25 32 27 56 74 74 13 10 352 11 91 4 46 81 35 315 247 278 272 291 330 303 301 251 236 232 264 288 295 288 279 266 253 258 268
338 343 347 350 353 357 1 4 7 8 15 20 39 60 18 1 36 52 9 359 355 355 1 360 111 74 36 301 295 266 271 291 292 299 238 255 264 272 277 282 284 280 280 282 266 262 259
329 336 345 347 351 355 360 4 8 12 17 46 60 10 354 22 322 336 8 51 15 333 282 346 294 341 321 266 262 292 295 270 274 330 42 336 284 300 296 285 286 287 279 276 281 280 269
320 328 337 344 354 358 0 5 11 14 21 43 34 17 24 346 345 285 72 100 334 328 256 264 350 328 298 294 292 281 275 268 267 277 282 274 288 295 290 312 306 285 329 322 306 300 310
311 323 330 337 345 352 358 2 9 12 19 28 26 21 14 311 321 349 283 317 270 257 275 283 300 243 278 299 300 284 270 269 258 260 232 243 237 264 295 312 291 1 316 309 309 289 299
298 311 322 327 336 346 354 2 6 6 11 14 20 27 14 289 277 287 145 256 298 291 253 269 293 278 310 312 295 312 320 182 56 44 143 198 19 309 279 305 291 288 45 13 321 303 300
283 302 315 316 333 340 342 347 357 1 1 6 5 5 1 299 215 261 264 276 299 306 304 249 293 314 331 302 296 297 313 338 315 338 168 229 271 262 288 275 297 322 161 342 321 294 80
270 286 298 301 320 322 326 331 340 352 352 355 356 354 355 287 266 210 238 267 226 232 266 299 335 323 356 338 278 307 292 313 288 297 321 312 311 276 263 276 276 323 276 334 285 330 322
269 280 284 294 294 305 308 314 323 340 345 346 347 344 343 287 284 253 246 251 257 222 270 332 299 167 284 326 305 43 281 323 287 282 298 293 298 274 265 260 277 14 328 290 297 301 301
263 268 270 286 295 298 292 299 310 322 336 338 339 334 328 296 274 292 287 276 253 249 258 253 271 283 293 255 235 258 265 270 272 281 216 262 233 287 230 269 295 304 305 303 305 298 300
Wind_Speed_850mb
63 63 61 58 55 51 46 40 33 29 25 23 23 24 23 22 22 24 28 28 25 22 20 22 23 17 18 22 15 12 16 21 25 30 39 35 37 16 13 7 6 15 14 12 15 7 8
62 62 62 60 57 53 49 44 38 29 24 21 21 22 21 22 23 25 25 24 21 16 14 17 21 20 26 27 16 14 14 17 22 27 28 29 18 16 13 7 8 6 10 14 6 6 4
61 61 60 58 57 55 51 46 41 35 25 18 17 18 18 20 22 19 18 16 13 9 8 8 11 12 16 14 12 12 18 19 22 29 30 26 13 11 5 6 6 3 2 5 8 12 5
61 61 59 58 57 55 52 49 44 38 31 19 12 12 13 16 18 16 13 9 7 2 3 6 8 7 8 11 12 14 14 13 15 20 25 25 12 18 8 4 6 6 3 12 15 14 2
61 63 62 59 56 55 53 50 47 41 35 26 11 6 9 12 13 10 7 5 3 6 5 6 5 6 7 4 3 2 2 5 8 10 15 19 9 10 6 4 3 10 12 19 15 15 9
62 64 65 63 58 55 54 54 50 44 38 30 17 2 6 8 8 7 5 6 9 4 5 5 4 8 3 2 3 6 7 11 10 9 4 12 8 4 4 7 10 11 10 9 19 10 9
63 64 65 64 61 57 56 55 53 49 41 33 23 6 6 10 5 2 8 2 4 1 7 4 6 5 10 2 9 5 12 14 14 5 2 6 4 4 1 6 6 10 9 16 17 12 20
63 64 64 64 63 61 60 57 55 51 44 35 24 12 4 11 6 3 7 11 13 7 8 6 2 7 7 7 3 17 7 5 4 7 6 4 12 7 8 8 10 11 11 19 15 14 23
62 63 63 64 65 65 64 62 58 55 49 37 23 12 5 15 8 9 10 15 12 13 1 6 9 11 8 9 10 16 13 4 5 7 8 12 11 4 7 7 10 8 12 7 16 26 25
61 62 63 64 65 66 65 64 61 59 54 41 25 9 5 17 10 9 5 10 15 6 3 3 3 8 10 5 6 28 20 2 2 8 7 10 5 4 5 5 5 13 7 12 22 26 24
61 62 62 63 65 67 68 64 63 62 59 41 23 7 6 20 10 11 5 18 4 2 6 4 6 7 15 8 8 18 17 9 8 6 4 5 8 9 7 3 7 8 10 19 23 25 11
60 62 62 63 65 67 68 66 62 62 57 36 23 13 10 14 7 2 14 11 4 2 5 4 7 9 6 15 8 19 18 14 4 3 3 4 8 2 3 4 2 6 11 22 2 4 9
57 61 63 63 64 68 69 68 62 61 51 33 24 23 25 19 10 13 10 7 3 2 4 5 5 6 6 7 4 13 11 11 8 10 10 16 4 0 1 7 5 5 16 9 6 5 10
54 58 62 62 64 66 68 68 65 59 44 26 30 30 24 18 15 14 6 3 4 1 4 1 4 2 3 14 6 14 9 5 6 6 3 6 8 6 1 22 17 6 4 5 12 10 27
51 56 60 61 63 65 66 67 66 57 47 16 15 20 22 20 18 13 3 7 3 3 6 6 2 3 2 2 7 11 5 4 3 3 5 8 10 10 28 10 6 8 10 3 9 8 11
48 54 56 59 62 64 66 66 65 57 45 9 6 6 27 20 17 9 8 6 4 6 6 1 2 0 3 2 5 12 7 5 3 3 1 3 19 13 6 5 6 13 13 6 4 9 13
45 50 52 56 59 62 65 67 63 58 46 22 1 2 27 16 12 11 6 4 3 7 11 2 3 4 4 2 4 7 6 3 3 6 5 6 6 7 6 13 25 10 9 7 8 9 11
43 47 51 54 56 59 61 62 63 57 49 32 6 4 30 14 10 7 5 7 12 9 17 9 3 2 2 0 5 6 7 7 6 7 13 0 6 19 36 43 20 20 28 27 13 16 14
39 44 49 51 52 56 57 60 59 56 52 34 7 8 23 9 6 6 7 4 9 15 11 10 8 10 7 1 6 8 8 9 7 4 9 4 5 12 15 6 6 7 8 24 21 12 35
36 41 46 48 48 51 54 55 56 54 47 25 9 4 17 26 17 5 7 7 8 13 5 9 3 8 6 4 4 10 18 10 6 18 29 13 14 22 22 37 36 43 42 41 29 13 34
33 37 40 42 43 46 51 51 52 49 43 17 15 8 8 7 10 8 3 5 7 10 7 9 4 13 9 7 18 15 8 16 29 23 1 5 16 23 33 43 44 45 48 48 39 47 32
30 34 34 37 39 43 45 47 47 48 41 43 10 7 8 2 6 3 5 4 6 8 5 3 3 13 14 13 20 34 22 10 14 7 3 7 18 28 40 32 28 29 38 41 41 40 32
28 31 33 36 35 39 42 41 42 46 46 24 24 16 5 1 2 3 2 4 5 9 5 9 7 22 22 17 15 37 43 49 41 33 32 15 9 8 25 19 34 28 11 16 27 22 17
27 27 32 34 31 36 36 37 39 42 43 36 29 16 7 2 3 4 2 4 7 8 15 22 25 9 6 35 52 40 30 25 22 24 32 7 5 4 16 26 23 13 32 21 17 22 29
27 26 30 31 26 30 29 30 33 37 38 34 28 18 7 5 3 4 2 6 17 15 9 14 13 9 34 18 8 11 3 5 5 8 14 10 3 9 9 20 37 21 3 4 6 37 32
29 28 31 25 26 29 28 28 27 30 34 34 27 23 9 5 5 3 2 4 5 7 8 6 13 19 11 4 3 5 5 6 5 4 9 5 11 10 11 9 16 15 2 26 40 31 10
32 30 29 24 22 29 30 27 24 26 31 33 25 23 13 7 8 5 6 5 5 4 6 7 11 8 10 3 3 3 4 5 5 9 8 21 14 14 14 13 20 14 6 53 15 12 62
35 32 29 26 27 27 28 26 22 22 28 30 26 22 19 11 25 14 12 13 11 7 5 6 10 2 4 2 3 2 5 4 9 13 21 12 9 7 8 10 12 5 39 4 24 66 65
35 33 25 24 28 23 28 26 24 24 24 29 26 27 27 19 22 41 37 32 36 29 19 6 4 4 4 1 3 2 8 9 12 10 2 8 12 9 10 15 51 63 43 63 56 63 62
Wind_Direction_850mb
42 40 39 39 38 38 38 37 37 39 41 42 38 32 37 53 75 90 107 113 110 100 79 66 61 88 103 95 103 86 62 67 69 55 49 52 57 77 71 76 96 45 1 333 316 313 242
40 38 37 36 36 35 34 34 34 32 31 33 36 38 48 67 82 97 110 117 114 98 77 67 59 91 100 87 107 104 74 69 62 46 41 45 50 83 87 73 58 338 330 333 5 3 309
38 36 34 33 33 31 31 31 29 29 26 25 35 43 57 76 84 96 109 119 119 97 71 49 54 61 94 86 101 91 87 78 52 41 41 38 43 60 91 113 1 358 20 19 16 6 19
36 33 32 31 29 28 27 28 26 25 25 26 30 47 70 88 86 90 102 125 151 135 36 29 22 71 114 100 91 99 93 75 53 40 37 35 73 89 70 103 39 37 71 348 356 343 47
32 30 29 28 29 27 26 24 22 22 22 21 30 59 98 101 89 77 100 82 248 238 287 323 356 73 116 82 98 94 27 21 13 18 25 24 62 70 46 50 77 35 331 331 324 350 340
28 27 27 27 27 26 24 22 20 17 17 18 19 66 145 140 109 72 22 302 351 226 281 309 62 124 133 43 348 295 314 311 308 319 346 25 56 97 104 25 6 319 306 295 304 336 334
26 24 25 25 25 25 23 19 18 15 12 12 13 15 180 183 170 13 352 357 348 67 322 283 285 278 269 320 301 323 286 282 281 266 256 30 316 359 289 203 211 226 237 271 295 303 320
25 23 23 23 22 21 20 17 14 11 7 4 4 5 183 176 161 49 59 87 52 349 318 10 304 250 266 287 2 19 346 232 207 270 148 236 286 212 185 210 231 231 275 301 288 297 313
23 21 20 20 19 18 17 14 10 6 2 358 356 348 180 162 152 126 74 62 23 352 331 11 77 60 43 81 39 18 22 308 239 246 221 250 287 147 239 238 246 250 269 260 297 317 287
20 19 16 16 14 13 15 12 8 3 358 355 352 335 184 173 165 165 65 12 341 348 68 17 57 40 359 136 105 37 17 349 196 281 199 258 342 286 293 255 212 282 198 286 288 312 307
16 16 14 12 10 9 10 12 8 4 357 0 4 2 160 175 146 152 358 343 6 150 146 63 61 59 49 81 321 18 24 357 292 310 233 301 341 330 296 103 199 306 311 294 293 287 278
11 12 11 10 8 7 9 11 10 7 3 12 28 56 110 162 143 98 328 334 117 179 129 70 43 17 39 13 29 349 12 5 33 53 46 295 297 266 101 71 100 328 301 291 170 238 246
9 7 7 8 7 5 6 11 11 11 11 24 51 86 97 97 75 356 344 151 130 73 312 39 17 1 105 9 6 8 2 30 30 355 3 322 21 23 98 340 298 317 329 316 282 245 292
4 4 2 3 3 4 3 6 12 12 19 46 80 92 84 58 21 8 83 108 101 108 44 76 25 105 71 3 33 348 11 35 78 77 306 332 304 343 170 329 295 290 259 264 291 292 297
1 359 360 1 3 2 1 0 6 11 19 58 92 77 52 31 11 7 99 65 92 47 330 353 345 72 106 31 353 348 7 266 185 121 8 299 249 293 296 303 219 155 220 349 271 267 268
357 357 359 359 1 3 2 1 1 8 11 29 112 55 21 11 7 36 76 110 97 41 333 84 263 316 294 323 318 350 315 190 190 182 43 307 297 271 284 255 204 246 152 212 213 270 261
354 355 358 359 359 1 2 1 1 3 9 11 229 88 4 359 10 54 79 72 25 8 19 317 215 239 213 257 238 303 270 272 201 147 213 287 222 274 279 244 277 230 219 210 275 232 264
352 354 355 357 356 358 2 3 1 1 6 14 40 59 1 1 37 31 58 345 349 351 20 20 84 84 310 242 266 265 253 259 165 331 315 20 242 275 273 276 292 259 262 251 236 238 233
350 351 351 353 354 357 1 5 5 4 5 10 46 24 21 41 65 31 349 13 38 12 24 15 45 42 17 301 303 245 252 278 244 246 332 184 254 303 286 189 141 227 223 239 251 274 259
345 348 349 352 354 357 1 4 6 7 7 14 25 32 27 56 74 74 13 10 352 11 91 4 46 81 35 315 247 278 272 291 330 303 301 251 236 232 264 288 295 288 279 266 253 258 268
338 343 347 350 353 357 1 4 7 8 15 20 39 60 18 1 36 52 9 359 355 355 1 360 111 74 36 301 295 266 271 291 292 299 238 255 264 272 277 282 284 280 280 282 266 262 259
329 336 345 347 351 355 360 4 8 12 17 46 60 10 354 22 322 336 8 51 15 333 282 346 294 341 321 266 262 292 295 270 274 330 42 336 284 300 296 285 286 287 279 276 281 280 269
320 328 337 344 354 358 0 5 11 14 21 43 34 17 24 346 345 285 72 100 334 328 256 264 350 328 298 294 292 281 275 268 267 277 282 274 288 295 290 312 306 285 329 322 306 300 310
311 323 330 337 345 352 358 2 9 12 19 28 26 21 14 311 321 349 283 317 270 257 275 283 300 243 278 299 300 284 270 269 258 260 232 243 237 264 295 312 291 1 316 309 309 289 299
298 311 322 327 336 346 354 2 6 6 11 14 20 27 14 289 277 287 145 256 298 291 253 269 293 278 310 312 295 312 320 182 56 44 143 198 19 309 279 305 291 288 45 13 321 303 300
283 302 315 316 333 340 342 347 357 1 1 6 5 5 1 299 215 261 264 276 299 306 304 249 293 314 331 302 296 297 313 338 315 338 168 229 271 262 288 275 297 322 161 342 321 294 80
270 286 298 301 320 322 326 331 340 352 352 355 356 354 355 287 266 210 238 267 226 232 266 299 335 323 356 338 278 307 292 313 288 297 321 312 311 276 263 276 276 323 276 334 285 330 322
269 280 284 294 294 305 308 314 323 340 345 346 347 344 343 287 284 253 246 251 257 222 270 332 299 167 284 326 305 43 281 323 287 282 298 293 298 274 265 260 277 14 328 290 297 301 301
263 268 270 286 295 298 292 299 310 322 336 338 339 334 328 296 274 292 287 276 253 249 258 253 271 283 293 255 235 258 265 270 272 281 216 262 233 287 230 269 295 304 305 303 305 298 300